JY1SAT (JO-97) (43803 NORAD) Tracking and Keplerian Element Data

This shows tracking and keplerian element data for the satellite.

Feedback or suggestion? Click here.




ElementValue
Catalog43803
NameJY1SAT (JO-97)
Epoch Orbit3442
Epoch Day203.16369214
Epoch Year2019
RAAN274.6941
Inclination97.7413
Eccentricity0.0014334
Argument of Perigee212.1612
Mean Anonmoly147.8736
Mean Motion14.95284231
Decay Rate2.15E-06
L11 43803U 18099AX 19203.16369214 .00000215 00000-0 24751-4 0 9993
L22 43803 97.7413 274.6941 0014334 212.1612 147.8736 14.95284231 34422

Live tracking and technical data element details for JY1SAT (JO-97) (NORAD 43803). JY1SAT (JO-97) can be tracked NOW for your location showing map with azimuth and elevation plus other details from your city location.

Track the satellite on the map from your city or location and see movement details for azimuth, elevation, latitude, longitude, range, height, and movement on the map or in text.







IsCatalogInMostPopularTable: catalog: 43803, numindb: 93
Update: records affected: 1



GetName: 43803 JY1SAT (JO-97)

Hit Count: updated at: Mon, 22 Jul 2019 15:51:22 GMT